Location: Clarks Summit,Pa.
(41.5000°N, 75.6000°W)
Time: 21:11:38
(UTC-05:00)

Tiangong 1 - Visible Passes

Search period start: 18 February 2018 00:00
Search period end: 28 February 2018 00:00
Orbit: 249 x 271 km, 42.8° (Epoch: 18 February)

Date Brightness Start Highest point End Pass type
(mag) Time Alt. Az. Time Alt. Az. Time Alt. Az.
18 Feb 1.4 05:43:03 28° SSW 05:43:13 29° SSW 05:45:17 10° SE visible
19 Feb 2.3 05:38:04 18° SSW 05:38:04 18° SSW 05:39:28 10° SSE visible
20 Feb 3.1 05:32:56 10° S 05:32:56 10° S 05:32:59 10° S visible
